GLOBALSTAR M001 1 25162U 98008A 22176.75878795 -.00000017 00000-0 61220-3 0 9998 2 25162 52.0029 258.0584 0001984 131.8569 18.7542 12.38145773109001 GLOBALSTAR M004 1 25163U 98008B 22176.85674348 -.00000103 00000-0 52953-5 0 9999 2 25163 51.9985 131.0936 0003560 35.3756 7.0571 12.63312794124254 GLOBALSTAR M002 1 25164U 98008C 22176.90461446 -.00000098 00000-0 -41818-3 0 9999 2 25164 52.0022 86.3177 0001645 339.8848 20.1907 11.61482836 57722 GLOBALSTAR M003 1 25165U 98008D 22176.81347398 -.00000126 00000-0 -39413-3 0 9999 2 25165 51.9573 300.7769 0007215 258.9581 223.4661 12.11849507101370 GLOBALSTAR M014 1 25306U 98023A 22176.88756378 -.00000083 00000-0 -10211-3 0 9999 2 25306 51.9863 32.4323 0001315 109.2951 350.7022 11.65448385 64390 GLOBALSTAR M006 1 25307U 98023B 22176.91394014 -.00000097 00000-0 -43724-3 0 9999 2 25307 51.9961 44.2073 0003220 334.6001 39.1207 11.58143346 90854 GLOBALSTAR M015 1 25308U 98023C 22176.91288786 -.00000121 00000-0 -10926-2 0 9993 2 25308 51.9829 92.8844 0012757 306.7598 130.4696 11.48847248 69112 GLOBALSTAR M008 1 25309U 98023D 22176.83112579 -.00000084 00000-0 94115-4 0 9992 2 25309 51.9966 110.3787 0003159 40.7791 8.0434 12.36005376103387 GLOBALSTAR M023 1 25621U 99004A 22176.11979991 -.00000072 00000-0 17459-3 0 9991 2 25621 52.0098 126.3149 0009986 245.6342 127.4906 12.62403197 78308 GLOBALSTAR M040 1 25622U 99004B 22176.78779157 -.00000079 00000-0 13717-3 0 9997 2 25622 51.9907 126.8514 0000371 95.8438 293.4323 12.61922507 77965 GLOBALSTAR M036 1 25623U 99004C 22176.42020803 -.00000057 00000-0 36924-3 0 9997 2 25623 51.9942 227.2620 0010962 131.7235 241.0654 11.86552999 49854 GLOBALSTAR M038 1 25624U 99004D 22176.72017168 -.00000093 00000-0 17709-4 0 9992 2 25624 51.9992 323.1483 0000802 312.3096 60.6227 12.32463463 68285 GLOBALSTAR M022 1 25649U 99012A 22176.80320036 -.00000072 00000-0 17416-3 0 9999 2 25649 52.0065 6.7731 0002469 159.7365 214.2411 12.02455885 45562 GLOBALSTAR M041 1 25650U 99012B 22176.84146045 -.00000056 00000-0 38334-3 0 9995 2 25650 51.9995 214.9689 0002382 344.7795 15.2969 11.96632232 48101 GLOBALSTAR M046 1 25651U 99012C 22176.75762847 -.00000193 00000-0 -11466-2 0 9999 2 25651 52.0074 356.7141 0001560 214.2985 158.8388 12.09359262 52095 GLOBALSTAR M037 1 25652U 99012D 22176.95608644 -.00000074 00000-0 16803-3 0 9994 2 25652 51.9997 254.8001 0001374 286.8291 244.2412 12.62351103 73950 GLOBALSTAR M045 1 25676U 99019A 22176.72239941 -.00000083 00000-0 90128-4 0 9995 2 25676 51.9944 164.5644 0000604 222.9006 308.3148 12.26994640 59892 GLOBALSTAR M019 1 25677U 99019B 22176.85101759 -.00000026 00000-0 66961-3 0 9999 2 25677 51.9857 218.1191 0001143 256.0559 275.0232 12.13832485 53093 GLOBALSTAR M044 1 25678U 99019C 22176.90545698 -.00000047 00000-0 51236-3 0 9992 2 25678 51.9992 33.3157 0006987 100.7171 359.9873 11.90208950 41851 GLOBALSTAR M042 1 25679U 99019D 22176.91974470 -.00000088 00000-0 42726-4 0 9998 2 25679 52.0002 240.1718 0003066 221.6959 317.2944 12.22029703 52322 GLOBALSTAR M025 1 25770U 99031A 22176.72557372 -.00000057 00000-0 32363-3 0 9992 2 25770 51.9783 158.4073 0000967 107.3264 63.7721 11.22539766359587 GLOBALSTAR M049 1 25771U 99031B 22176.31736799 -.00000050 00000-0 51417-3 0 9994 2 25771 51.9852 139.4358 0003080 356.4064 3.6710 11.12092128996385 GLOBALSTAR M047 1 25772U 99031C 22176.89567634 -.00000052 00000-0 49450-3 0 9994 2 25772 51.9814 238.9767 0016867 196.3649 163.6613 11.31907809347987 GLOBALSTAR M052 1 25773U 99031D 22176.94868942 -.00000104 00000-0 -12881-2 0 9993 2 25773 51.9860 261.9756 0003069 172.4917 358.5501 11.15040160357225 GLOBALSTAR M035 1 25851U 99037A 22176.87602528 -.00000031 00000-0 12374-2 0 9999 2 25851 51.9971 319.7196 0013478 23.2104 97.7523 11.04520814976108 GLOBALSTAR M032 1 25852U 99037B 22176.80929487 -.00000040 00000-0 84723-3 0 9997 2 25852 51.9921 220.0940 0005975 133.7041 226.4254 11.19045864 13056 GLOBALSTAR M051 1 25853U 99037C 22176.61135855 -.00000073 00000-0 -19135-4 0 9998 2 25853 51.9770 144.4738 0000644 39.6402 320.4455 11.42181415 8114 GLOBALSTAR M030 1 25854U 99037D 22176.84773300 -.00000090 00000-0 -32087-3 0 9996 2 25854 51.9901 19.1338 0003399 237.5803 122.4685 11.55078656 24499 GLOBALSTAR M048 1 25872U 99041A 22176.86700236 -.00000057 00000-0 34838-3 0 9999 2 25872 51.9396 36.8402 0013885 100.0572 348.3394 11.33831165 1649 GLOBALSTAR M026 1 25873U 99041B 22176.89069584 -.00000116 00000-0 -18961-2 0 9992 2 25873 52.0020 89.0966 0000823 262.8378 171.9707 11.06803385 28099 GLOBALSTAR M043 1 25874U 99041C 22176.84904069 -.00000077 00000-0 -26427-3 0 9997 2 25874 51.9401 101.2030 0012876 257.5472 174.7405 11.25671146 429 GLOBALSTAR M028 1 25875U 99041D 22176.75461303 -.00000073 00000-0 17603-3 0 9998 2 25875 51.9599 195.3946 0063755 230.3525 129.1700 12.50521402 54124 GLOBALSTAR M024 1 25883U 99043A 22176.67527791 -.00000111 00000-0 -16286-2 0 9993 2 25883 52.0030 314.3751 0002034 119.4276 253.2715 11.10146700994098 GLOBALSTAR M027 1 25884U 99043B 22176.80338023 -.00000091 00000-0 -10215-2 0 9990 2 25884 52.0238 1.2915 0021856 36.2611 323.9659 11.04361919 21104 GLOBALSTAR M054 1 25885U 99043C 22176.62344409 .00000049 00000-0 30695-2 0 9991 2 25885 52.0154 311.4660 0006633 90.1367 282.5027 11.39190913995109 GLOBALSTAR M053 1 25886U 99043D 22176.80920586 -.00000040 00000-0 81993-3 0 9998 2 25886 51.9943 197.7956 0002951 26.9326 144.3436 11.27644557996765 GLOBALSTAR M058 1 25907U 99049A 22176.77647290 -.00000079 00000-0 72409-4 0 9997 2 25907 51.9926 132.6988 0002063 324.2567 35.8129 11.93150650411739 GLOBALSTAR M050 1 25908U 99049B 22176.88777347 .00000006 00000-0 10669-2 0 9994 2 25908 51.9965 221.3075 0008579 24.7901 145.9312 12.07404957 21572 GLOBALSTAR M033 1 25909U 99049C 22176.65205491 -.00000105 00000-0 -13147-3 0 9993 2 25909 51.9884 168.9007 0012695 210.3235 149.6878 12.20249419402971 GLOBALSTAR M055 1 25910U 99049D 22176.83312704 -.00000036 00000-0 49601-3 0 9997 2 25910 52.0001 232.0382 0006564 34.6323 325.4955 12.29366996 34541 GLOBALSTAR M057 1 25943U 99058A 22176.75563234 -.00000058 00000-0 32169-3 0 9995 2 25943 51.9954 194.0964 0002797 284.6676 75.3863 12.24759196 33683 GLOBALSTAR M059 1 25944U 99058B 22176.65018882 -.00000059 00000-0 34046-3 0 9996 2 25944 52.0015 269.1949 0000049 159.7481 346.6541 11.99941534443485 GLOBALSTAR M056 1 25945U 99058C 22176.84888422 -.00000001 00000-0 10156-2 0 9995 2 25945 51.9976 298.5607 0001717 160.2584 352.8607 12.04749394 31618 GLOBALSTAR M031 1 25946U 99058D 22176.94919389 -.00000079 00000-0 11734-3 0 9993 2 25946 51.9954 255.6163 0002023 140.7051 30.0422 12.15980475 32271 GLOBALSTAR M039 1 25961U 99062A 22176.74293289 -.00000081 00000-0 12905-3 0 9991 2 25961 51.9863 340.5768 0003823 101.3505 258.7791 12.62241020 42882 GLOBALSTAR M034 1 25962U 99062B 22176.88435983 -.00000072 00000-0 14591-3 0 9999 2 25962 51.9891 317.6174 0015111 145.6303 353.0265 11.79405412 10097 GLOBALSTAR M029 1 25963U 99062C 22176.67257752 -.00000069 00000-0 21705-3 0 9994 2 25963 51.9776 158.0897 0002257 141.9894 29.7848 11.99854462 38572 GLOBALSTAR M061 1 25964U 99062D 22176.63964521 -.00000086 00000-0 -89622-4 0 9993 2 25964 51.9781 127.8830 0005975 76.5117 94.1280 11.76737652993146 GLOBALSTAR M063 1 26081U 00008A 22176.92912446 -.00000085 00000-0 -32566-4 0 9991 2 26081 51.9958 94.9087 0005332 32.1753 45.4239 11.86133409 28550 GLOBALSTAR M062 1 26082U 00008B 22176.90858626 -.00000111 00000-0 -90440-4 0 9994 2 26082 51.9868 52.8945 0006451 317.1583 55.4694 12.43386707361367 GLOBALSTAR M060 1 26083U 00008C 22176.90089542 -.00000051 00000-0 40054-3 0 9995 2 26083 51.9994 219.1384 0002961 80.1815 91.1056 12.17596284 19914 GLOBALSTAR M064 1 26084U 00008D 22176.80245750 -.00000051 00000-0 46610-3 0 9994 2 26084 51.9998 206.8973 0001502 150.2612 209.8306 11.88497161 37805 GLOBALSTAR M065 1 31571U 07020A 22176.60287076 -.00000094 00000-0 52334-4 0 9995 2 31571 51.9917 296.8035 0000837 159.7186 213.4820 12.62270733696081 GLOBALSTAR M069 1 31573U 07020C 22176.53699249 -.00000074 00000-0 16427-3 0 9998 2 31573 51.9941 253.2995 0001118 206.3050 167.3353 12.62271695697193 GLOBALSTAR M072 1 31574U 07020D 22176.77003620 -.00000086 00000-0 10118-3 0 9991 2 31574 52.0103 347.8749 0001786 111.0463 262.8936 12.62266983695497 GLOBALSTAR M071 1 31576U 07020F 22176.75228082 -.00000079 00000-0 13889-3 0 9992 2 31576 52.0062 257.2437 0001683 209.4259 303.3637 12.62265929358407 GLOBALSTAR M067 1 32263U 07048A 22176.69111019 -.00000097 00000-0 38047-5 0 9995 2 32263 51.9746 337.8385 0001565 141.0282 231.3904 12.40609794674508 GLOBALSTAR M070 1 32264U 07048B 22176.82220644 -.00000103 00000-0 49820-5 0 9995 2 32264 51.9733 200.8698 0001499 277.9412 252.9285 12.62266565676345 GLOBALSTAR M066 1 32265U 07048C 22176.91734080 -.00000079 00000-0 13982-3 0 9990 2 32265 51.9691 62.8715 0002064 43.9695 39.8154 12.62261342678626 GLOBALSTAR M068 1 32266U 07048D 22176.85049267 -.00000075 00000-0 16171-3 0 9999 2 32266 51.9907 16.5403 0000273 127.9745 337.3833 12.62738365680184 GLOBALSTAR M079 1 37188U 10054A 22176.84643348 -.00000078 00000-0 14280-3 0 9999 2 37188 52.0014 209.8298 0000154 111.7184 59.6573 12.62271106539136 GLOBALSTAR M074 1 37189U 10054B 22176.87297617 -.00000080 00000-0 13407-3 0 9990 2 37189 51.9988 209.2411 0000159 183.3174 348.3799 12.62268720539816 GLOBALSTAR M076 1 37190U 10054C 22176.81989337 -.00000097 00000-0 37274-4 0 9990 2 37190 52.0012 209.4719 0000551 112.5782 59.3137 12.62276285539456 GLOBALSTAR M077 1 37191U 10054D 22176.72761009 -.00000096 00000-0 44180-4 0 9998 2 37191 52.0045 166.2973 0000056 21.4567 149.1556 12.62265000539810 GLOBALSTAR M075 1 37192U 10054E 22176.66366251 -.00000088 00000-0 88169-4 0 9998 2 37192 51.9940 252.8110 0000547 115.6319 4.3895 12.62266795538666 GLOBALSTAR M073 1 37193U 10054F 22176.75424052 -.00000097 00000-0 39769-4 0 9995 2 37193 52.0033 165.5255 0000125 16.3488 155.3772 12.62266415540504 GLOBALSTAR M083 1 37739U 11033A 22176.60895578 -.00000119 00000-0 -87115-4 0 9992 2 37739 51.9853 116.1837 0000675 20.8432 150.9146 12.62268649509507 GLOBALSTAR M088 1 37740U 11033B 22176.88411536 -.00000089 00000-0 83881-4 0 9993 2 37740 51.9751 21.7528 0001105 69.5047 33.4077 12.62264519505376 GLOBALSTAR M091 1 37741U 11033C 22176.71931382 -.00000094 00000-0 56079-4 0 9997 2 37741 52.0015 343.8644 0000971 82.5257 290.2238 12.62266261505858 GLOBALSTAR M085 1 37742U 11033D 22176.64674826 -.00000098 00000-0 34558-4 0 9999 2 37742 51.9875 296.0876 0000735 110.6283 352.4066 12.62266422506352 GLOBALSTAR M081 1 37743U 11033E 22176.83971572 -.00000100 00000-0 23458-4 0 9990 2 37743 51.9970 297.6149 0000808 106.5788 34.3864 12.62261953506901 GLOBALSTAR M089 1 37744U 11033F 22176.72150039 -.00000085 00000-0 10265-3 0 9999 2 37744 51.9922 252.4096 0000763 147.7835 354.6347 12.62266757507350 GLOBALSTAR M084 1 38040U 11080A 22176.79044773 -.00000113 00000-0 -50514-4 0 9990 2 38040 52.0001 118.9108 0000386 60.4608 335.2866 12.62267100485348 GLOBALSTAR M080 1 38041U 11080B 22176.92059872 -.00000116 00000-0 -66178-4 0 9998 2 38041 52.0053 119.7399 0000367 65.2272 321.7413 12.62262227485484 GLOBALSTAR M082 1 38042U 11080C 22176.94602473 -.00000104 00000-0 98155-6 0 9990 2 38042 52.0086 74.9946 0000854 22.2779 60.2137 12.62269890486197 GLOBALSTAR M092 1 38043U 11080D 22176.70111513 -.00000114 00000-0 -58721-4 0 9990 2 38043 52.0064 166.0548 0000210 210.6275 320.2345 12.62262624484618 GLOBALSTAR M090 1 38044U 11080E 22176.95690309 -.00000103 00000-0 70316-5 0 9995 2 38044 51.9898 70.1700 0000889 50.2096 323.0810 12.62264974486315 GLOBALSTAR M086 1 38045U 11080F 22176.91894965 -.00000109 00000-0 -29525-4 0 9998 2 38045 51.9910 70.7517 0001979 71.9079 9.0942 12.62267097486254 GLOBALSTAR M097 1 39072U 13005A 22176.76970917 -.00000097 00000-0 40118-4 0 9999 2 39072 52.0065 344.6497 0001082 78.4739 281.6249 12.62264427433487 GLOBALSTAR M093 1 39073U 13005B 22176.74268184 -.00000093 00000-0 58219-4 0 9991 2 39073 51.9827 339.7728 0001138 76.8597 283.2397 12.62267908433434 GLOBALSTAR M094 1 39074U 13005C 22176.90138118 -.00000086 00000-0 97190-4 0 9996 2 39074 51.9948 252.5891 0000510 125.3459 234.7456 12.62268011435066 GLOBALSTAR M096 1 39075U 13005D 22176.83553274 -.00000100 00000-0 22808-4 0 9994 2 39075 52.0085 300.4540 0000877 100.0159 260.0806 12.62268934433971 GLOBALSTAR M078 1 39076U 13005E 22176.88778938 -.00000195 00000-0 -50950-3 0 9999 2 39076 51.9896 26.2793 0000515 6.8524 353.2349 12.62264299432607 GLOBALSTAR M095 1 39077U 13005F 22176.83527351 -.00000092 00000-0 67341-4 0 9994 2 39077 51.9821 24.1780 0000904 39.4985 320.5947 12.62269524432454